Location: Peebles
(55.6412°N, 3.1714°W)
Time: 02:08:44
(UTC+01:00)

deb r/b Ablestar - Pass Details

Date: 07 July 2022
Orbit: 859 x 1154 km, 67.2° (Epoch: 13 August)

Event Time Altitude Azimuth Distance (km) Brightness Sun altitude
Rises 01:46:31 0° 318° (NW) 4,021 ? -11.5°
Reaches altitude 10° 01:49:22 10° 312° (NW) 3,065 ? -11.5°
Maximum altitude 01:56:07 41° 245° (WSW) 1,600 ? -11.3°
Enters shadow 02:01:54 14° 181° (S) 2,731 ? -11.2°
